Wind_Speed
17 18 19 19 18 19 19 20 20 21 21 21 21 22 23 23 23 24 25 26 27 27 27 27 27 28 28 28 28 28 25 21 20 19 18 19 21 19 19 20 21 21 22 22 22 23 23 23 23 23 23 23 23 22 21 20 20 19 18 20 20 20 22 21 20 20 21 21 20 20 21 24 25 24 26 26 26 26 26 24 24 24 24 25 23 23 21 19
17 18 19 18 18 19 20 20 21 23 23 24 24 24 24 24 25 26 27 29 29 30 29 29 29 29 30 30 29 30 27 23 20 18 18 21 21 20 20 21 22 22 22 23 23 23 22 22 23 23 23 23 23 23 22 20 20 19 18 19 18 18 21 21 21 21 21 21 20 20 20 21 23 25 26 27 25 25 26 23 21 23 22 24 23 22 23 20
17 18 19 18 19 19 20 21 23 24 24 25 25 25 25 25 27 29 30 31 32 32 32 31 30 30 31 32 31 31 28 25 21 19 20 22 22 21 21 21 22 22 22 23 23 23 22 22 22 22 23 22 23 24 23 21 20 19 18 19 17 18 21 20 21 21 21 22 21 20 21 19 20 24 25 27 28 24 24 22 20 22 21 23 24 22 23 23
17 18 18 18 19 20 21 22 24 24 25 24 25 25 26 28 30 32 33 34 34 34 33 33 32 32 33 34 33 32 30 26 22 21 22 23 24 22 21 21 21 21 22 22 23 23 23 23 23 24 23 22 23 24 23 22 21 20 19 18 17 19 22 20 20 21 21 21 20 19 22 20 18 21 22 26 29 23 18 18 19 22 21 22 25 23 23 24
17 18 18 19 19 20 22 23 24 24 24 24 25 26 28 30 32 34 35 36 36 35 34 34 34 33 34 35 34 33 31 25 23 23 23 25 25 21 21 21 21 21 21 22 22 23 23 23 24 24 24 23 23 23 23 22 23 23 20 17 17 21 23 21 19 19 20 20 18 18 21 21 20 21 22 24 26 21 16 17 19 22 22 23 24 25 25 24
17 19 20 20 21 22 23 24 24 24 24 24 25 27 29 31 33 35 36 37 38 38 36 35 35 35 35 35 35 34 31 26 24 24 23 26 25 21 21 22 22 23 22 23 22 22 22 23 24 24 25 23 22 22 21 21 24 25 20 16 17 20 24 23 20 18 21 21 18 18 20 21 21 22 24 23 21 20 19 20 22 22 23 25 25 25 26 24
18 20 21 21 22 23 23 24 24 24 24 24 26 28 30 32 34 35 37 40 41 41 40 38 37 36 36 36 35 34 31 26 24 25 25 25 22 20 22 24 25 24 23 23 22 22 21 22 23 24 24 22 22 20 19 21 23 25 21 17 18 20 22 23 21 19 22 23 20 20 22 22 22 23 24 20 17 20 22 23 23 23 23 26 27 26 26 25
19 20 21 22 22 23 24 25 25 25 25 26 27 29 31 33 35 37 39 41 43 43 43 42 40 39 38 37 35 34 31 26 25 26 24 21 19 20 23 24 24 23 22 21 20 20 20 21 22 24 25 22 21 19 20 22 21 22 22 21 23 22 22 23 22 21 22 24 23 23 26 26 23 27 25 19 18 21 22 23 22 22 23 24 26 27 27 27
19 20 21 22 23 24 25 25 25 26 26 27 28 30 32 35 37 39 40 42 43 43 44 45 43 40 38 36 34 32 29 27 26 24 19 16 17 20 21 20 20 20 20 19 19 20 20 20 20 23 25 22 19 18 21 23 20 21 23 24 26 25 24 24 23 23 22 25 25 26 32 32 25 29 26 20 19 23 24 24 22 22 23 23 25 26 27 28
19 20 21 22 23 24 25 25 26 26 27 28 30 31 33 35 38 39 40 42 43 43 44 45 43 40 37 35 33 30 27 26 23 17 14 15 17 17 16 16 17 19 20 21 20 20 20 20 20 22 23 20 18 18 20 20 21 23 25 27 27 27 27 26 25 26 26 28 28 31 39 39 32 32 28 25 22 23 23 25 24 24 24 23 24 25 27 28
20 21 22 23 24 25 26 26 26 27 28 30 31 32 34 36 38 39 40 41 42 43 44 45 43 39 36 36 34 29 24 20 16 13 14 15 15 13 13 15 17 19 20 20 20 20 19 18 18 19 20 20 19 19 17 18 21 24 27 30 28 27 27 25 26 29 31 31 29 35 44 44 41 38 34 33 29 24 24 26 27 27 27 25 25 25 28 29
20 21 22 23 24 26 26 26 27 28 29 31 32 34 35 37 38 39 40 40 41 42 43 43 42 39 37 35 30 23 18 15 13 14 14 12 10 12 14 17 18 18 18 18 19 18 17 16 16 16 17 19 20 19 16 17 22 24 27 31 30 30 28 24 26 30 32 32 32 37 43 44 44 44 43 40 35 30 31 33 32 30 30 29 29 28 29 30
21 22 23 25 26 27 27 28 28 29 31 32 34 36 37 38 38 39 39 39 40 41 42 42 40 38 35 29 22 17 16 16 14 12 11 9 11 14 16 17 17 17 18 18 18 17 17 16 16 15 15 18 19 19 18 18 22 25 27 29 32 35 31 28 30 31 31 33 35 35 38 43 44 45 47 45 40 38 41 42 38 36 35 34 33 32 33 32
21 23 24 26 27 28 28 28 29 30 32 33 36 38 38 39 39 39 39 40 41 41 41 40 39 38 29 22 18 16 15 13 12 11 10 11 14 16 15 16 18 18 19 19 18 18 17 17 16 15 15 18 20 21 20 20 23 26 27 28 32 36 36 33 32 31 33 36 38 35 38 45 44 43 46 46 46 48 51 49 44 42 41 41 39 36 37 37
22 24 25 27 28 29 29 29 29 30 32 35 37 38 39 40 39 39 38 40 40 40 41 39 39 36 23 17 18 16 14 13 12 12 12 13 15 15 14 17 21 19 18 18 17 18 17 16 16 15 16 19 21 22 22 23 24 25 27 30 32 34 39 39 33 32 35 38 40 37 39 47 45 43 44 47 51 53 54 53 51 48 45 45 45 42 38 37
23 25 26 28 29 29 29 30 30 31 33 36 38 40 41 40 39 38 37 40 39 39 41 38 39 33 18 15 16 15 15 13 12 12 14 15 15 15 16 21 22 17 17 17 17 18 18 15 15 15 17 20 20 21 24 26 26 25 26 31 34 36 41 41 35 33 35 38 42 41 42 48 46 45 46 49 53 53 53 54 53 52 49 47 46 45 42 36
24 25 27 29 29 30 30 31 32 33 35 37 39 41 42 41 40 37 37 39 40 40 40 37 39 29 14 13 14 14 16 13 11 14 16 14 16 20 23 25 21 16 18 19 19 21 20 16 16 16 18 20 19 20 23 27 30 31 29 32 35 37 40 41 37 33 32 37 43 44 47 49 47 48 49 50 53 53 53 54 53 53 51 47 45 45 44 39
24 26 28 29 30 30 31 32 33 34 36 38 41 42 43 43 40 36 36 39 41 41 40 38 36 24 13 12 12 14 18 14 12 16 16 13 18 26 29 26 20 19 23 23 23 25 23 18 18 20 20 20 19 20 23 27 32 33 32 33 36 38 40 42 39 35 33 37 42 45 46 48 48 50 50 50 53 55 54 54 54 52 49 47 46 46 44 40
25 27 28 29 30 31 32 33 34 36 37 39 42 43 44 43 40 37 36 39 42 42 41 38 31 20 12 10 11 16 18 14 12 17 17 14 22 32 31 26 24 26 28 27 28 28 25 22 22 24 23 21 21 22 24 28 31 32 32 33 35 38 41 42 40 37 36 38 41 42 44 48 49 50 52 52 52 55 56 56 54 51 48 47 47 45 44 39
25 27 28 29 30 31 32 33 35 37 40 41 43 46 47 46 45 44 41 40 42 42 37 31 21 14 10 9 12 19 18 12 13 22 21 16 27 36 30 28 31 30 29 29 30 28 26 26 27 26 24 24 24 24 26 30 32 33 32 33 36 39 42 42 41 37 36 39 42 41 42 46 49 51 54 53 51 54 56 56 54 50 47 47 44 41 38 34
25 27 28 29 31 32 33 34 36 39 42 44 45 47 49 51 50 50 49 44 42 40 34 22 13 11 10 9 13 20 16 10 17 26 20 18 31 34 28 32 34 31 28 26 27 27 26 29 28 26 25 27 26 25 28 31 33 34 33 35 38 41 42 43 42 38 35 39 44 43 42 47 49 49 53 52 52 53 53 55 53 49 47 45 40 35 29 26
26 27 29 29 31 33 34 35 37 39 42 43 45 46 47 49 49 49 51 48 43 37 26 14 10 13 10 7 16 21 9 9 24 24 15 22 33 30 30 35 34 31 27 23 25 26 27 30 29 26 26 28 27 27 29 32 35 36 34 35 39 42 43 42 41 38 36 40 47 46 45 49 48 47 51 52 52 53 51 53 52 48 48 42 35 30 24 22
26 28 29 30 32 34 35 36 38 39 40 42 44 45 46 47 47 48 48 48 44 29 14 8 11 16 9 10 22 19 8 17 27 19 19 30 32 29 34 35 31 30 26 22 24 25 29 31 29 26 27 28 30 29 30 34 37 37 36 37 40 42 41 41 41 38 39 44 48 50 49 50 48 45 51 52 52 53 51 50 50 48 47 39 31 28 24 23
27 29 30 31 32 34 36 37 38 39 39 41 42 43 44 45 45 47 47 47 37 18 8 8 12 15 13 18 24 16 13 24 23 20 28 32 29 31 34 29 29 30 27 24 24 27 32 30 25 26 28 30 32 32 32 36 39 39 37 38 41 41 39 42 43 42 44 44 46 50 41 39 46 48 52 54 51 51 48 47 48 47 45 39 32 28 24 24
29 30 31 32 32 34 36 36 37 38 38 39 39 40 42 43 44 46 47 44 28 11 7 8 11 17 19 22 20 15 21 25 23 28 33 29 29 33 29 25 27 30 29 28 28 30 31 28 25 28 30 31 33 34 33 34 40 40 36 36 40 42 42 44 45 42 41 39 44 45 23 18 37 50 54 55 52 49 44 44 47 45 42 38 36 33 27 25
30 32 33 33 33 34 35 35 36 36 37 37 37 38 40 41 42 44 46 36 17 7 8 9 14 20 22 18 16 21 27 26 27 32 30 27 29 29 26 25 26 29 30 32 31 29 29 30 29 29 31 32 34 35 32 32 39 40 36 36 39 43 44 45 46 40 34 35 44 46 26 15 30 49 55 55 52 52 47 46 50 46 40 37 37 37 34 32
32 33 34 34 34 34 34 35 35 35 36 36 36 37 38 40 41 42 39 22 8 7 10 14 19 20 18 15 18 27 31 31 34 31 27 26 25 23 25 25 26 29 29 30 33 31 30 32 30 29 32 35 36 35 31 32 38 39 37 39 40 43 44 45 46 42 40 43 47 51 40 22 27 47 55 53 52 55 52 51 53 47 41 38 36 38 41 41
34 34 35 36 35 34 34 34 34 34 35 35 37 37 38 40 39 38 26 8 5 11 14 20 21 16 15 17 25 32 30 32 34 30 27 25 21 21 24 26 28 31 26 25 34 36 32 30 29 30 33 34 34 31 30 33 38 36 36 39 39 39 42 44 44 45 46 38 37 50 44 20 21 44 54 53 54 56 54 53 55 50 43 39 37 39 43 47
35 35 36 36 36 35 34 34 34 33 33 35 36 36 38 39 37 32 16 3 8 16 19 21 17 14 18 24 29 30 29 30 28 26 26 22 19 20 24 28 31 32 28 24 32 36 30 28 29 31 33 32 29 26 26 28 31 33 35 37 39 39 42 43 41 45 41 23 29 51 46 18 14 38 50 48 52 55 54 54 57 52 45 41 40 42 46 50
36 37 36 36 36 35 35 35 34 33 34 35 35 36 38 36 32 23 8 6 15 20 20 17 15 20 27 32 33 29 29 29 23 23 24 19 19 22 27 30 29 30 30 26 29 32 30 29 29 28 27 25 24 25 26 25 30 36 37 38 40 41 42 39 37 39 24 13 31 51 50 29 16 31 49 48 50 54 56 59 60 53 46 43 42 45 49 51
37 37 36 36 36 35 35 35 34 33 34 35 36 37 37 34 27 13 4 13 21 18 15 15 21 29 32 34 35 32 30 27 24 24 21 20 23 26 27 25 25 31 32 29 29 30 31 30 28 25 21 19 24 30 30 32 38 40 38 39 38 35 33 26 27 26 9 10 33 46 48 35 20 31 49 47 48 55 59 62 62 58 51 46 46 50 52 53
38 38 37 36 36 36 36 34 34 34 34 36 37 37 35 29 19 9 10 18 17 12 16 23 29 32 32 32 31 31 30 28 27 24 21 26 28 26 24 21 24 30 30 31 32 32 36 35 28 23 20 20 25 33 37 41 44 42 41 42 30 18 16 11 10 10 8 17 34 41 38 27 27 43 51 47 52 58 58 60 61 59 54 47 46 49 51 50
39 38 37 36 36 36 36 35 35 35 35 37 37 36 31 20 12 15 19 18 15 17 25 29 30 31 32 31 27 29 30 28 25 24 26 29 27 26 25 20 17 16 19 27 30 32 40 39 28 20 20 24 29 37 42 41 43 46 48 43 23 8 7 8 7 7 11 20 33 41 34 21 29 45 45 46 53 53 51 54 56 50 42 39 43 46 48 44
40 40 38 37 37 37 36 36 35 36 37 38 36 33 26 17 18 23 24 21 21 25 26 27 30 31 29 27 25 27 28 26 26 29 31 28 27 29 21 13 9 9 14 21 23 26 31 32 30 28 30 35 40 42 42 44 47 47 42 31 20 17 15 10 9 9 11 18 31 40 27 15 27 40 42 47 52 51 50 49 48 43 40 43 46 46 45 40
41 41 39 38 37 37 37 36 36 38 38 36 33 29 24 22 24 25 23 22 23 25 25 27 30 30 27 25 24 23 24 26 30 32 29 26 28 24 13 9 11 13 17 19 18 24 26 33 42 42 39 42 46 46 45 44 38 29 25 23 27 35 33 26 24 27 27 22 23 30 29 29 39 45 47 49 48 50 48 43 42 43 44 45 42 40 39 37
42 42 41 39 39 39 38 38 38 38 36 33 30 28 26 26 26 24 23 23 24 25 27 28 25 23 24 24 23 23 23 28 30 30 29 27 24 15 7 10 14 16 22 22 19 19 22 37 49 48 45 46 46 44 39 31 25 25 30 34 39 42 40 35 30 31 32 21 14 23 30 34 37 39 40 36 32 37 41 41 41 38 37 38 38 40 41 42
43 44 43 41 40 40 40 39 38 37 35 32 29 29 30 29 27 24 22 23 24 24 25 26 21 18 18 19 23 26 27 28 26 26 30 28 21 11 6 10 16 22 24 22 21 19 21 37 51 51 49 47 43 42 39 34 32 36 38 40 42 38 35 33 20 14 17 13 12 20 25 28 29 28 31 30 32 41 47 44 41 39 43 46 49 52 51 54
44 45 45 43 42 40 40 39 38 36 34 31 31 30 30 28 23 20 20 21 23 23 22 21 18 16 16 19 26 28 28 28 26 26 28 24 15 9 11 19 25 25 21 19 24 26 24 33 46 50 47 45 46 47 46 44 38 36 38 42 40 29 24 25 17 12 12 8 10 19 28 31 26 25 35 43 45 47 49 52 56 60 66 70 74 76 72 71
45 45 45 44 42 40 40 38 37 36 33 31 31 29 27 24 20 19 20 20 21 21 20 18 16 17 19 23 27 28 27 28 28 27 25 19 16 18 22 26 25 23 24 27 30 29 27 26 35 48 50 50 54 50 43 42 38 35 39 42 40 33 30 30 27 23 17 11 12 17 18 13 17 36 51 49 44 48 57 69 76 78 81 83 83 83 81 80
45 45 44 43 41 40 38 37 36 35 33 32 30 27 24 21 20 20 20 20 20 19 18 18 18 20 23 25 25 25 27 28 29 28 24 22 24 26 25 25 26 29 32 32 30 30 30 23 29 48 53 50 53 48 36 33 35 39 44 47 46 44 41 36 31 29 22 11 7 10 10 12 31 55 56 43 48 64 73 77 80 81 81 78 75 73 73 73
45 44 44 43 40 38 36 35 35 34 32 30 28 25 22 20 20 20 19 20 20 19 19 19 20 21 23 24 23 23 26 28 29 28 27 29 28 21 21 27 32 34 34 35 35 32 29 26 31 45 48 47 53 53 43 38 42 47 47 46 44 40 37 25 13 20 27 22 18 16 14 25 42 50 47 50 63 72 73 73 75 75 72 71 70 67 67 68
45 44 44 42 39 36 35 34 35 33 30 28 25 22 21 20 20 19 20 20 19 19 20 20 20 21 20 22 24 23 25 29 33 31 29 30 26 21 25 30 32 35 36 38 38 34 32 33 34 36 39 46 54 57 53 45 41 37 34 37 40 40 41 29 15 25 37 38 39 30 20 28 40 44 50 60 65 67 68 68 68 68 68 70 70 67 67 68
43 42 42 41 37 34 33 33 33 31 27 25 23 21 21 21 21 20 20 19 18 19 20 19 20 20 19 21 23 23 25 29 31 29 26 25 26 27 31 34 36 39 39 37 38 38 37 34 33 33 39 50 59 58 51 37 29 32 39 46 48 47 49 42 38 44 40 33 33 22 13 26 41 48 57 62 64 65 64 63 65 66 66 67 66 65 64 63
42 42 41 39 35 32 32 32 31 28 24 24 24 22 20 20 21 21 20 19 18 18 19 19 19 19 20 22 23 25 25 24 24 25 27 30 32 34 36 38 39 39 38 37 39 40 35 32 33 29 27 36 43 39 35 33 36 43 52 55 53 54 53 49 52 51 34 32 37 19 11 33 50 56 62 64 64 64 63 63 64 60 57 57 59 60 59 58
38 38 37 34 31 30 30 30 29 27 26 25 24 21 19 19 20 21 20 19 19 19 19 19 19 20 22 24 25 25 24 23 24 27 32 36 39 39 39 40 40 40 40 39 39 36 32 34 34 21 11 16 22 21 27 39 44 46 49 51 52 52 48 46 50 39 24 36 47 28 25 50 64 64 65 64 64 66 65 62 58 53 50 48 49 52 54 56
32 31 31 29 29 30 31 30 27 25 24 22 21 19 18 19 20 21 20 19 19 20 19 19 19 21 23 24 24 24 24 24 25 28 33 38 41 42 42 42 42 41 41 40 38 33 30 36 38 28 23 30 37 39 42 45 45 45 48 50 50 48 45 47 45 36 34 43 44 39 46 60 63 60 63 66 66 62 56 52 53 53 48 45 46 46 47 49
28 28 29 29 28 27 26 24 21 21 21 20 20 21 21 21 21 20 19 19 20 20 19 19 20 22 22 23 24 25 26 27 28 31 34 37 41 43 42 42 41 40 40 39 36 33 33 39 42 39 38 43 49 49 46 44 46 50 51 51 50 46 46 48 44 45 52 42 30 43 56 54 54 61 66 64 58 52 49 52 57 56 50 51 53 51 49 46
28 30 30 29 28 26 24 23 22 22 23 23 23 24 24 24 22 20 19 19 20 20 19 18 19 22 24 25 25 25 27 30 32 34 34 37 41 43 44 43 40 39 39 37 36 35 33 37 40 38 38 42 46 45 44 45 48 50 50 50 50 47 47 51 51 55 58 44 36 49 56 51 58 64 60 54 50 51 55 55 55 54 54 58 61 60 54 44
31 31 29 28 28 28 26 25 25 24 24 24 24 24 24 24 22 21 20 20 21 21 20 20 20 22 25 25 25 26 27 29 33 36 38 40 42 43 44 44 41 40 38 37 36 33 29 34 36 33 35 40 45 44 43 44 46 48 50 50 50 49 50 52 52 51 50 47 48 53 54 55 57 53 49 50 51 54 54 50 51 55 59 64 64 60 51 43
30 27 26 26 26 26 25 24 24 24 24 24 24 24 25 24 22 21 20 22 23 22 23 23 23 23 23 24 24 25 26 28 33 37 38 39 40 40 40 41 42 40 37 37 35 30 27 32 33 33 36 41 45 45 42 42 45 49 52 52 51 50 48 46 45 44 46 49 53 54 53 53 51 48 50 52 52 52 50 52 58 62 65 67 63 56 51 50
25 23 23 25 26 26 26 25 25 25 25 24 23 23 24 24 23 22 21 21 23 24 24 24 23 22 22 22 22 24 28 30 32 34 34 34 37 36 36 38 38 37 36 35 31 28 27 30 34 34 34 39 45 46 45 47 50 50 51 50 45 42 42 44 46 49 52 52 51 50 47 49 51 51 54 55 52 51 53 59 65 68 69 67 60 56 55 53
22 23 23 24 26 28 27 26 26 26 26 24 22 23 24 24 24 23 22 21 21 24 24 22 21 21 22 24 24 27 29 30 30 32 31 32 34 33 33 35 33 32 32 27 25 27 27 29 35 34 32 38 44 44 46 47 39 34 38 42 41 43 50 56 54 51 50 46 45 46 47 50 52 53 55 54 51 52 58 64 67 69 68 63 58 57 57 56
Wind_Direction
20 17 15 13 12 11 8 5 2 360 358 357 356 355 354 352 349 347 347 347 346 346 345 345 344 345 345 347 348 347 343 335 328 326 327 330 332 333 331 329 327 326 328 331 336 336 336 337 338 341 342 339 337 340 339 341 342 344 347 343 343 338 337 342 337 332 328 331 329 323 319 315 319 319 313 312 315 315 310 311 309 299 294 291 291 291 291 289
16 14 12 11 9 6 4 1 358 356 355 354 353 353 353 351 349 348 347 346 345 345 343 342 341 341 341 343 344 344 344 337 331 330 329 331 331 331 330 327 325 326 327 330 333 333 333 335 336 339 339 338 335 336 337 340 341 341 340 339 340 333 335 341 335 331 328 329 330 323 317 315 320 318 314 316 318 315 315 325 315 297 293 291 288 287 288 287
13 11 9 7 4 2 359 357 354 354 352 351 350 351 353 352 351 349 347 345 344 342 340 339 337 336 337 339 340 340 340 336 332 331 332 334 333 330 327 325 324 324 324 326 330 330 332 334 335 336 336 335 333 334 338 336 335 336 334 335 338 328 334 341 330 328 329 329 334 327 314 316 322 315 316 319 318 321 326 329 313 297 295 288 284 282 283 286
9 8 6 3 360 357 355 353 352 351 349 349 349 350 351 351 351 349 348 345 343 341 339 336 333 332 333 335 337 336 335 332 328 329 331 333 333 329 326 325 322 321 321 323 328 329 332 333 332 332 331 332 331 332 337 332 327 331 334 334 336 327 331 340 326 324 329 327 336 330 314 318 321 313 319 317 315 328 330 316 305 300 298 287 283 281 278 279
5 4 2 358 355 352 352 350 349 349 348 349 348 349 350 351 352 351 350 347 345 342 339 336 332 330 329 330 333 332 331 328 324 324 326 328 329 326 325 325 321 321 320 321 326 328 329 328 328 328 327 329 329 331 333 329 321 324 334 337 336 327 329 337 322 320 326 322 332 329 318 325 324 317 319 314 315 326 320 306 303 301 298 290 285 282 278 275
1 360 357 354 351 350 349 347 347 347 346 347 347 348 349 350 352 351 351 350 349 347 344 339 333 329 327 327 328 328 327 325 321 321 323 325 325 324 325 326 322 321 319 319 323 324 325 322 323 322 322 325 325 328 328 325 320 319 331 337 334 327 328 332 319 319 325 321 326 322 317 327 328 321 319 319 319 320 315 311 308 307 303 296 291 287 283 278
358 356 354 351 349 347 345 344 344 344 344 344 345 346 347 350 351 349 349 350 351 351 348 344 338 332 327 326 325 324 325 323 319 320 321 321 321 324 327 325 321 320 316 316 318 320 319 316 317 315 316 319 320 326 324 322 321 318 326 332 332 331 329 327 317 320 324 321 320 312 310 319 320 317 324 334 329 319 315 313 310 309 305 300 300 297 292 285
354 352 350 348 346 344 342 342 342 342 342 341 342 344 345 348 349 348 348 349 350 350 349 347 342 336 331 327 323 323 323 321 318 317 317 316 318 324 325 323 320 320 318 318 318 318 316 314 315 311 313 318 320 326 322 321 322 319 322 326 333 335 332 328 320 321 321 318 314 305 309 317 314 305 318 344 335 321 314 310 311 307 303 302 302 301 297 291
350 348 347 345 342 341 340 339 340 339 339 338 340 341 344 347 348 347 347 347 348 349 348 347 344 339 335 330 325 325 324 320 319 318 315 315 320 323 323 323 324 326 326 327 325 321 319 317 316 312 313 318 322 327 324 322 324 323 320 323 334 336 336 334 327 326 321 318 314 307 311 319 311 297 317 351 335 320 315 312 313 306 304 304 302 299 295 291
345 345 343 341 339 338 337 337 337 337 336 336 337 340 343 345 346 346 345 345 347 348 347 345 344 341 339 335 331 330 326 323 323 321 319 319 321 323 325 328 330 332 332 332 329 326 324 322 320 316 315 317 323 327 325 323 324 326 321 324 335 335 336 339 334 333 327 324 321 314 316 318 304 292 318 348 331 316 316 318 317 310 309 306 302 299 293 289
342 341 338 337 335 335 334 334 334 335 335 335 336 339 341 344 345 345 344 343 346 346 345 344 344 342 342 339 333 333 332 330 328 321 320 321 325 331 334 335 335 334 334 333 331 329 328 326 324 319 316 318 323 327 327 326 325 326 323 326 335 333 334 339 336 335 332 331 330 323 319 315 303 299 320 335 327 317 313 320 321 316 315 311 307 300 294 291
337 336 335 333 332 332 332 331 332 333 334 335 336 338 341 344 346 346 343 342 345 345 343 344 344 342 341 339 336 340 347 339 325 320 324 331 343 345 340 339 340 338 338 337 335 334 333 333 331 326 319 317 322 325 326 328 325 327 326 326 332 330 331 337 335 335 334 333 334 329 321 315 310 312 322 326 324 319 314 318 320 316 316 315 313 307 299 294
332 332 331 330 330 330 329 330 331 333 335 336 336 338 341 344 346 347 344 343 345 344 343 345 344 342 341 342 345 348 344 334 330 335 344 357 357 347 344 344 346 343 340 340 340 339 338 336 334 330 322 319 322 319 320 327 325 326 325 324 330 328 329 336 335 334 335 331 331 329 317 312 314 316 319 321 321 318 315 318 318 316 316 315 315 312 306 301
329 329 328 328 327 327 327 328 330 333 336 336 337 338 340 342 345 346 344 343 341 340 343 346 344 344 348 353 358 358 354 353 360 4 4 5 354 349 351 349 347 341 335 336 338 337 336 335 332 330 328 325 322 317 320 324 323 325 322 323 330 326 326 334 334 334 334 329 329 327 312 307 312 314 314 316 317 317 316 316 316 316 316 315 314 313 311 306
327 327 327 325 325 325 325 326 329 333 336 336 336 336 338 341 343 345 345 341 337 338 342 344 345 349 358 12 17 21 23 17 12 8 3 358 354 354 353 347 343 335 329 334 337 337 336 333 328 327 330 329 323 317 318 319 320 325 320 322 327 324 324 330 333 334 333 328 325 324 311 303 308 311 310 311 313 314 313 312 314 315 314 314 314 315 313 309
324 325 324 323 322 322 322 324 328 333 336 336 335 336 338 338 342 347 343 337 336 338 340 343 347 351 3 19 20 25 21 11 6 3 357 355 359 359 349 343 341 331 327 330 330 333 333 329 323 321 330 334 326 317 316 317 320 325 320 320 323 322 322 325 328 332 332 327 321 319 309 300 304 309 307 307 308 309 308 308 311 312 313 315 316 317 316 312
321 321 321 320 320 320 321 324 328 332 335 335 334 335 335 335 341 344 339 338 340 338 338 343 348 350 359 7 11 17 10 5 1 355 354 359 3 355 345 342 340 328 327 324 319 324 327 326 316 313 331 340 333 322 318 319 322 324 320 317 317 317 317 316 320 328 330 324 317 314 307 298 300 307 307 305 305 306 305 305 307 309 311 315 316 317 317 315
317 318 319 319 319 319 321 324 327 331 333 334 333 332 333 334 336 335 335 340 340 337 339 344 348 350 353 355 2 4 359 355 354 354 352 351 352 347 342 342 338 328 326 320 315 318 320 321 312 311 329 340 335 325 316 315 318 316 313 312 310 310 309 308 312 321 325 319 311 309 306 298 298 304 308 307 304 304 303 303 305 307 311 314 316 316 316 314
314 316 318 319 319 319 321 324 326 328 331 333 332 331 331 330 327 327 334 340 341 341 342 344 348 352 350 346 346 350 353 353 354 350 338 331 342 343 341 340 337 331 326 319 316 316 316 316 309 312 326 334 329 320 313 312 312 308 306 304 302 302 302 304 309 316 318 313 305 304 303 298 296 302 308 308 304 302 302 302 304 307 312 315 316 316 315 312
313 316 318 319 319 319 320 322 324 326 330 332 331 331 331 329 328 329 334 342 345 345 346 345 348 355 345 331 336 343 346 343 344 340 328 324 336 339 340 338 334 332 326 317 314 314 313 311 311 317 324 325 322 317 313 312 308 306 303 300 298 296 295 301 308 313 314 308 299 300 301 295 293 298 306 308 303 300 301 303 305 309 314 316 316 317 315 310
313 315 318 319 319 318 318 320 323 327 331 332 333 334 334 335 337 337 337 344 348 346 347 350 353 355 336 315 331 339 332 320 334 332 321 319 331 335 338 333 330 330 328 318 311 313 310 309 320 329 324 320 320 318 313 309 306 305 302 299 297 294 295 302 308 310 313 305 297 299 300 294 291 295 302 305 302 299 300 303 306 310 313 314 317 319 314 306
313 315 317 319 318 317 317 320 324 329 331 331 333 334 336 338 339 339 339 343 348 349 352 360 358 350 333 299 327 336 312 302 332 330 314 320 329 332 333 330 328 330 332 322 315 316 310 313 329 334 324 322 321 318 313 309 306 306 304 299 294 296 299 302 306 311 311 304 299 300 299 296 293 292 298 304 303 301 303 304 307 310 310 313 318 316 309 306
312 314 316 317 317 316 317 321 324 328 329 330 333 334 336 337 337 339 339 342 347 354 5 10 354 349 338 303 324 331 302 315 333 331 319 325 329 328 329 330 328 329 333 326 320 317 312 321 334 330 326 326 321 319 316 311 309 308 307 301 297 302 302 299 306 313 309 304 300 298 295 295 297 293 295 306 308 304 307 308 308 308 309 313 317 309 305 309
311 313 314 315 316 315 317 321 323 326 328 330 333 334 335 335 336 337 338 340 347 359 11 354 347 348 337 319 324 327 318 325 332 329 326 328 327 326 329 332 329 329 332 326 321 314 313 327 334 326 329 328 322 322 320 315 313 313 312 306 304 309 307 302 306 308 305 302 300 298 291 286 296 297 297 308 312 307 307 308 306 307 309 312 313 305 303 310
311 313 314 314 315 315 316 319 322 324 327 330 332 332 334 334 335 337 337 339 348 3 1 346 340 339 332 324 323 323 325 328 328 328 330 330 327 327 332 336 330 327 329 326 319 312 318 333 332 325 327 323 319 320 320 318 314 313 317 315 313 313 309 306 307 305 300 297 300 303 289 272 293 294 297 309 313 306 303 305 306 308 310 311 311 306 304 311
311 312 313 313 314 314 316 318 320 323 326 329 330 331 333 333 334 336 335 337 351 5 347 341 333 331 329 325 322 325 327 326 326 328 331 330 330 329 332 336 330 325 328 326 316 311 320 329 326 323 323 318 317 317 323 326 314 310 317 320 316 312 308 307 305 301 292 291 300 300 284 270 285 285 296 309 309 303 301 304 308 308 308 309 312 313 311 313
310 311 312 312 313 313 315 317 319 321 324 327 329 329 331 331 332 335 335 337 355 349 337 333 327 325 327 327 327 328 329 326 326 329 332 332 332 331 331 333 329 324 328 322 309 308 320 324 322 322 318 317 318 321 330 328 311 308 317 319 315 310 308 305 301 297 292 292 296 292 281 269 268 278 296 304 299 299 300 304 311 307 302 304 313 322 319 316
308 309 309 310 311 313 315 316 317 320 323 325 327 327 329 330 330 334 337 336 331 333 327 324 321 318 319 325 328 328 327 325 325 328 334 335 332 332 331 330 325 320 325 315 302 309 321 320 320 322 318 319 322 326 331 323 313 314 320 319 313 311 308 304 302 297 294 290 285 285 280 264 257 274 292 298 290 293 296 303 310 305 298 303 313 324 322 317
306 307 308 309 311 313 315 315 316 319 322 323 324 325 327 328 328 332 336 296 310 322 319 317 313 308 313 319 324 325 323 325 327 326 330 332 329 333 330 326 323 319 322 313 301 311 322 319 321 322 318 320 323 327 326 319 318 319 319 315 311 310 305 303 302 293 287 276 267 278 277 258 258 272 281 287 284 288 294 300 308 304 297 303 313 322 320 315
304 304 306 307 310 312 313 314 315 317 319 319 320 322 324 325 327 333 330 285 311 316 313 311 305 309 316 319 323 327 326 329 332 326 327 328 325 329 326 323 324 320 318 313 306 313 318 315 318 319 316 317 316 317 313 310 315 315 315 315 310 307 304 301 295 282 274 250 259 273 276 266 264 271 272 275 280 290 293 294 304 305 300 303 312 319 313 309
301 302 304 306 308 310 311 311 311 313 315 316 317 319 321 323 324 325 286 302 312 309 303 302 305 312 319 322 327 329 329 333 334 330 329 324 321 326 328 328 330 322 316 317 316 314 311 309 313 313 307 303 304 306 303 305 312 314 316 317 312 309 306 295 280 269 241 240 263 274 279 267 250 266 273 275 282 290 291 293 301 305 303 305 309 310 305 304
299 300 301 304 306 307 308 307 308 310 311 313 315 316 320 323 318 291 284 306 308 296 298 302 307 315 320 323 326 326 327 331 332 333 328 323 323 328 332 332 328 321 317 321 322 313 306 305 307 305 295 295 301 304 306 310 314 315 316 316 313 309 304 284 263 258 230 257 271 279 282 265 250 268 277 281 283 287 292 297 301 302 303 303 301 301 300 301
296 297 299 301 303 304 304 303 304 306 308 311 313 314 319 321 304 293 297 300 293 290 298 302 307 315 318 321 324 324 326 329 330 329 325 324 324 327 333 335 329 325 319 322 324 318 313 311 311 305 296 300 304 308 314 315 314 313 311 311 307 299 304 285 267 270 256 265 279 285 286 274 267 276 283 286 287 291 295 297 297 298 299 297 293 292 294 295
294 295 296 298 299 300 300 300 300 302 306 309 310 312 314 304 294 299 298 293 289 291 295 300 307 313 315 319 325 328 328 327 325 324 324 327 326 330 346 2 354 341 326 323 321 317 315 310 308 308 305 305 306 308 312 311 309 308 305 301 294 291 294 286 281 290 279 280 286 287 285 273 276 284 289 290 292 294 292 290 290 289 287 287 286 284 287 291
292 293 294 294 295 296 297 297 297 301 306 308 307 307 305 297 296 299 296 292 291 291 295 302 308 312 314 318 324 328 327 321 320 323 325 328 329 337 5 11 346 335 330 328 317 311 304 294 298 304 303 302 304 306 309 309 308 308 303 296 296 298 296 286 282 282 281 284 284 279 274 272 280 287 291 294 295 293 290 286 283 285 289 289 286 283 285 295
290 291 291 291 292 294 295 295 296 301 305 305 303 300 299 297 297 294 290 291 291 294 300 306 310 313 314 317 320 322 321 318 320 323 323 326 331 340 352 336 335 328 322 322 316 310 298 293 300 304 303 303 305 308 311 310 306 306 305 300 299 302 297 289 284 281 280 279 274 273 275 281 289 294 295 294 293 298 304 297 287 293 303 299 294 293 293 303
289 290 289 290 291 293 293 293 296 301 304 302 298 297 298 297 294 288 284 286 291 295 302 308 313 314 311 311 312 316 320 319 320 321 320 325 331 328 303 308 315 310 307 310 312 310 298 293 296 299 302 304 304 303 302 297 299 306 307 306 305 304 296 289 289 285 278 273 275 278 281 291 297 295 293 294 298 310 317 310 300 308 315 311 307 306 304 307
288 288 289 289 291 292 291 292 295 300 302 299 296 298 298 296 291 282 279 283 288 292 299 302 305 304 301 302 306 313 319 317 316 318 319 323 325 308 293 301 305 302 295 297 307 311 306 296 294 296 300 301 299 298 298 296 300 305 304 305 308 309 299 292 294 299 293 290 290 283 284 290 291 292 304 311 313 317 320 315 312 313 314 314 313 311 309 307
287 288 288 288 289 290 290 291 294 299 299 296 295 296 295 292 285 278 279 282 284 289 295 294 293 294 294 298 304 310 313 311 311 315 316 313 307 303 303 303 300 294 291 295 301 305 305 299 293 294 296 297 297 298 301 304 306 306 303 302 303 301 298 295 292 293 293 291 291 289 285 287 300 304 309 314 316 318 317 313 312 311 311 313 313 312 311 309
287 288 287 286 287 288 289 291 293 297 295 292 293 292 289 286 278 275 278 278 280 285 287 287 287 289 292 297 302 305 306 305 306 309 305 298 301 305 305 298 293 293 294 296 301 306 306 300 292 294 297 298 298 299 303 307 311 312 308 305 302 299 298 294 286 285 289 290 300 303 287 287 302 303 303 309 311 310 311 311 310 311 312 313 314 314 313 311
286 286 285 285 287 288 289 291 292 293 291 289 290 288 283 276 271 271 273 274 276 278 280 283 285 287 291 296 299 300 301 303 304 302 299 298 303 304 296 293 295 296 297 299 304 310 314 306 297 298 301 299 296 296 297 297 305 309 305 303 303 303 306 306 289 292 300 298 296 297 291 294 299 299 299 305 308 308 311 311 310 311 312 313 314 315 314 313
283 283 284 285 286 287 289 289 288 288 287 285 285 281 276 272 272 272 270 270 272 273 277 281 282 285 288 290 295 297 297 298 299 298 297 298 299 294 289 292 294 294 298 303 304 307 311 308 299 295 295 293 290 292 295 299 305 303 294 295 299 301 304 305 298 301 299 292 289 287 281 288 295 299 304 307 309 309 310 310 309 310 312 314 314 314 313 312
282 282 283 284 284 285 285 284 284 284 283 281 280 276 272 272 274 273 270 271 273 273 275 277 278 283 285 287 289 291 292 294 296 296 294 290 290 289 289 291 291 292 296 301 303 303 306 306 303 299 296 294 292 294 299 305 308 299 293 295 298 298 299 298 295 296 292 285 289 285 267 284 295 304 308 310 310 311 311 311 312 313 315 314 313 313 314 313
281 281 281 281 280 281 280 280 281 282 280 279 277 274 271 270 270 270 272 275 276 275 275 276 277 280 282 283 283 285 288 290 290 291 287 286 289 291 291 292 292 294 298 303 308 309 308 306 307 308 306 302 299 301 306 308 305 302 299 299 300 301 302 300 298 298 290 285 292 292 275 291 301 308 310 311 312 312 314 315 314 315 316 315 314 314 315 314
279 278 278 277 276 276 275 275 278 279 278 276 274 270 266 265 268 272 275 276 277 276 274 275 277 280 282 283 283 284 283 279 279 284 287 290 291 292 293 294 295 298 302 306 309 310 308 306 304 300 295 296 296 297 303 305 303 298 294 296 299 300 301 300 298 296 289 286 288 283 281 293 301 308 309 310 313 314 314 314 312 314 315 315 315 316 315 313
274 273 273 274 273 273 273 273 274 274 273 271 269 267 264 264 268 273 277 276 277 275 271 272 279 281 282 284 283 281 279 276 277 283 288 291 291 292 295 297 299 301 303 305 306 308 310 305 301 293 280 280 284 289 298 302 298 293 293 295 297 298 300 298 291 285 282 284 281 279 287 294 299 305 309 310 313 313 313 314 315 317 317 318 319 320 320 316
267 267 270 272 274 273 271 270 269 270 269 269 269 270 270 271 271 273 276 275 274 274 272 277 282 281 280 282 282 281 283 284 285 287 289 289 290 292 295 298 300 301 302 304 306 311 311 303 299 296 291 290 292 296 301 301 294 293 295 297 298 301 301 294 286 284 287 286 280 287 294 297 302 308 311 310 311 313 315 320 322 319 317 320 321 323 326 325
261 265 269 271 271 270 270 271 271 272 271 271 271 271 273 275 275 276 275 272 271 273 276 279 280 280 282 284 285 286 289 292 292 291 291 291 293 296 299 302 304 304 306 307 308 312 309 299 299 299 295 295 296 296 298 298 296 297 299 301 302 303 300 293 290 291 291 287 286 296 301 304 307 309 309 308 313 318 319 320 318 314 314 320 325 328 329 327
259 265 270 271 270 270 272 271 271 271 270 271 272 272 274 275 276 277 275 275 277 279 281 280 277 278 282 285 287 288 291 293 293 293 295 296 299 302 305 307 308 308 310 309 311 315 306 296 301 301 294 294 296 297 300 301 301 302 303 304 305 302 300 297 295 296 296 293 296 303 306 305 307 308 308 312 317 317 316 316 316 317 320 325 330 332 329 323
262 267 270 271 271 272 272 270 270 269 269 270 271 273 275 276 277 278 278 280 284 284 283 282 280 280 283 283 285 285 286 288 289 292 296 299 301 304 306 306 308 310 311 311 314 316 305 297 304 304 295 295 300 304 305 305 305 305 305 307 308 306 302 299 298 302 303 302 304 307 306 305 309 311 312 315 316 315 318 321 322 323 325 327 330 331 328 323
262 264 266 270 272 272 270 270 269 268 268 269 270 273 275 277 280 282 283 284 284 283 282 281 281 283 285 284 282 282 283 286 286 290 295 297 299 302 302 302 307 308 308 311 312 312 306 302 307 307 297 295 303 307 307 308 307 303 304 308 308 303 299 299 303 307 307 306 306 305 304 305 309 312 313 314 315 318 322 323 323 323 323 325 328 329 330 328
256 259 265 270 271 270 270 269 268 267 268 270 272 272 274 278 282 284 285 284 282 283 284 282 282 284 285 284 282 282 284 287 289 293 296 296 297 300 299 300 304 302 302 307 309 310 310 304 303 303 292 291 301 305 305 306 302 295 300 305 301 298 300 302 306 310 310 308 303 299 300 304 308 313 313 312 314 318 320 320 319 319 320 323 326 327 329 330
Height
3213 3213 3212 3211 3210 3209 3208 3207 3206 3205 3203 3202 3201 3199 3198 3196 3195 3193 3191 3190 3188 3186 3184 3183 3181 3180 3178 3177 3176 3174 3172 3169 3167 3165 3163 3162 3161 3160 3159 3157 3156 3154 3153 3152 3150 3148 3146 3145 3143 3142 3141 3140 3138 3137 3136 3135 3133 3131 3130 3128 3128 3126 3124 3123 3121 3119 3117 3115 3114 3112 3111 3107 3106 3106 3104 3102 3100 3099 3097 3096 3094 3092 3090 3089 3088 3088 3087 3087
3213 3213 3212 3211 3210 3209 3208 3207 3205 3204 3203 3201 3200 3199 3198 3196 3194 3193 3191 3189 3188 3186 3184 3182 3180 3179 3177 3176 3175 3173 3171 3168 3166 3164 3163 3161 3160 3158 3157 3156 3154 3153 3151 3150 3149 3147 3146 3145 3143 3141 3140 3138 3137 3136 3134 3133 3131 3129 3128 3127 3126 3125 3123 3122 3120 3118 3116 3114 3113 3111 3109 3107 3105 3104 3102 3099 3098 3097 3094 3094 3092 3090 3089 3087 3086 3086 3084 3084
3214 3213 3212 3210 3209 3208 3207 3206 3205 3203 3202 3201 3199 3198 3197 3196 3194 3193 3191 3189 3187 3185 3183 3182 3180 3178 3176 3174 3173 3171 3169 3167 3165 3164 3162 3160 3158 3157 3156 3154 3153 3151 3150 3149 3148 3146 3145 3143 3142 3141 3139 3138 3135 3134 3132 3130 3129 3128 3127 3126 3124 3123 3122 3121 3119 3117 3115 3113 3111 3109 3108 3106 3105 3102 3100 3097 3095 3095 3093 3091 3090 3088 3087 3086 3084 3084 3083 3082
3213 3212 3211 3210 3209 3208 3207 3206 3204 3203 3202 3200 3199 3198 3197 3195 3194 3192 3190 3188 3186 3184 3182 3181 3178 3177 3174 3172 3171 3169 3167 3165 3164 3162 3161 3159 3157 3155 3154 3153 3152 3150 3149 3147 3146 3145 3143 3142 3140 3139 3137 3136 3134 3132 3131 3128 3127 3126 3126 3124 3123 3121 3120 3120 3118 3116 3114 3112 3110 3108 3106 3105 3104 3101 3099 3096 3092 3092 3091 3089 3087 3085 3085 3084 3083 3082 3082 3081
3213 3212 3211 3210 3209 3207 3206 3205 3204 3203 3201 3200 3198 3197 3196 3195 3193 3191 3188 3186 3185 3183 3181 3179 3177 3175 3173 3171 3169 3167 3164 3162 3161 3160 3159 3157 3156 3154 3152 3151 3150 3149 3147 3146 3145 3143 3142 3140 3138 3137 3135 3134 3133 3131 3129 3127 3125 3124 3124 3123 3122 3121 3119 3119 3117 3115 3114 3111 3110 3107 3104 3103 3102 3100 3097 3095 3091 3089 3089 3086 3085 3083 3082 3081 3080 3080 3079 3079
3212 3211 3210 3209 3208 3207 3206 3205 3203 3202 3200 3199 3198 3196 3195 3193 3192 3189 3187 3185 3183 3181 3179 3177 3175 3173 3171 3169 3167 3164 3161 3159 3158 3157 3157 3155 3153 3152 3150 3149 3148 3147 3145 3144 3143 3141 3140 3139 3137 3135 3133 3132 3131 3130 3129 3127 3124 3122 3123 3123 3122 3121 3118 3117 3116 3114 3112 3109 3108 3106 3103 3101 3099 3097 3095 3093 3089 3087 3086 3084 3082 3081 3080 3078 3077 3077 3077 3077
3212 3211 3210 3208 3207 3206 3205 3204 3202 3201 3200 3198 3197 3195 3194 3192 3190 3188 3185 3183 3181 3178 3176 3175 3173 3171 3168 3167 3165 3162 3159 3157 3156 3154 3154 3152 3151 3149 3148 3147 3145 3144 3143 3142 3141 3140 3139 3137 3135 3133 3132 3131 3130 3129 3127 3126 3124 3121 3121 3122 3121 3120 3118 3116 3114 3112 3110 3107 3106 3104 3101 3099 3097 3094 3092 3090 3088 3085 3083 3082 3081 3079 3078 3075 3074 3074 3073 3073
3211 3210 3209 3208 3206 3205 3204 3203 3201 3200 3198 3197 3195 3194 3193 3191 3189 3186 3183 3181 3178 3176 3174 3172 3170 3168 3166 3164 3162 3160 3157 3155 3154 3153 3151 3150 3149 3148 3147 3145 3144 3142 3141 3140 3139 3137 3137 3135 3133 3131 3130 3129 3128 3127 3126 3124 3123 3120 3119 3119 3119 3119 3117 3114 3112 3111 3109 3106 3104 3101 3098 3097 3095 3091 3089 3088 3086 3084 3082 3080 3079 3078 3076 3074 3072 3070 3069 3069
3210 3209 3208 3206 3205 3204 3203 3202 3200 3199 3197 3196 3194 3193 3191 3190 3187 3184 3182 3179 3177 3174 3172 3170 3168 3166 3163 3160 3159 3157 3155 3153 3151 3150 3149 3148 3147 3146 3145 3143 3142 3140 3139 3138 3137 3135 3135 3133 3132 3130 3128 3127 3127 3126 3124 3122 3121 3119 3118 3117 3116 3116 3114 3113 3111 3110 3108 3105 3102 3098 3094 3093 3092 3088 3085 3085 3084 3082 3080 3079 3078 3076 3075 3073 3072 3069 3067 3066
3209 3208 3206 3205 3204 3203 3201 3200 3199 3198 3196 3194 3193 3191 3190 3188 3186 3183 3180 3178 3175 3173 3171 3169 3167 3164 3161 3158 3155 3154 3152 3150 3149 3148 3147 3146 3145 3144 3143 3142 3141 3139 3138 3136 3135 3134 3133 3132 3130 3128 3126 3125 3125 3125 3124 3122 3120 3118 3116 3115 3114 3113 3112 3111 3109 3108 3106 3103 3101 3095 3089 3088 3088 3085 3082 3083 3082 3080 3079 3078 3076 3074 3073 3073 3071 3069 3067 3065
3207 3206 3205 3204 3202 3201 3200 3199 3198 3196 3195 3193 3191 3190 3188 3187 3184 3182 3179 3176 3174 3172 3170 3168 3165 3162 3160 3156 3153 3151 3149 3148 3147 3147 3146 3145 3144 3143 3141 3140 3139 3138 3137 3135 3134 3133 3132 3131 3129 3127 3125 3124 3124 3123 3123 3121 3119 3117 3114 3112 3112 3111 3110 3110 3108 3106 3104 3101 3099 3094 3085 3081 3080 3078 3077 3079 3079 3077 3076 3076 3075 3072 3071 3071 3070 3068 3066 3064
3206 3205 3203 3202 3201 3200 3199 3197 3196 3195 3193 3191 3189 3188 3187 3185 3183 3180 3177 3175 3173 3170 3168 3166 3164 3161 3158 3155 3151 3149 3148 3147 3146 3146 3145 3144 3143 3142 3141 3139 3138 3137 3136 3134 3133 3132 3131 3130 3128 3126 3124 3123 3122 3121 3121 3120 3118 3116 3113 3110 3109 3109 3108 3108 3107 3105 3102 3099 3098 3094 3083 3074 3073 3071 3072 3075 3074 3073 3072 3072 3072 3070 3069 3068 3067 3066 3064 3063
3205 3203 3202 3200 3199 3198 3197 3196 3195 3193 3192 3190 3187 3186 3185 3183 3182 3179 3176 3173 3172 3170 3167 3165 3162 3160 3157 3154 3151 3149 3148 3147 3146 3145 3144 3144 3143 3142 3140 3139 3138 3136 3135 3133 3132 3131 3130 3129 3127 3126 3124 3122 3121 3120 3120 3120 3117 3115 3113 3110 3107 3105 3105 3106 3105 3103 3101 3098 3096 3095 3085 3072 3069 3069 3068 3070 3070 3068 3067 3067 3067 3066 3065 3065 3064 3062 3060 3060
3203 3202 3200 3199 3198 3196 3195 3194 3193 3192 3190 3188 3185 3183 3182 3181 3180 3178 3175 3172 3170 3169 3166 3164 3161 3159 3156 3153 3151 3149 3148 3147 3146 3145 3144 3144 3143 3141 3140 3138 3137 3136 3134 3132 3131 3130 3129 3127 3126 3125 3123 3121 3120 3118 3118 3118 3117 3115 3112 3110 3108 3103 3101 3102 3103 3101 3099 3096 3094 3094 3086 3071 3066 3068 3067 3066 3066 3064 3062 3061 3062 3061 3061 3060 3059 3058 3055 3054
3202 3201 3199 3197 3196 3195 3193 3192 3191 3190 3188 3186 3183 3181 3180 3179 3178 3177 3174 3171 3169 3167 3165 3163 3160 3158 3155 3153 3151 3150 3149 3148 3146 3145 3144 3144 3143 3141 3140 3138 3136 3134 3133 3131 3130 3129 3128 3127 3125 3124 3123 3121 3119 3117 3116 3116 3115 3114 3110 3108 3107 3103 3098 3098 3099 3099 3097 3094 3092 3092 3085 3070 3063 3065 3065 3064 3063 3062 3058 3056 3057 3056 3056 3055 3053 3052 3050 3049
3200 3199 3198 3196 3194 3193 3192 3190 3189 3188 3186 3184 3181 3179 3177 3177 3176 3176 3173 3170 3167 3166 3164 3162 3159 3157 3155 3153 3152 3150 3149 3148 3147 3145 3144 3143 3142 3141 3140 3138 3136 3134 3132 3131 3129 3128 3127 3126 3124 3122 3122 3120 3118 3116 3114 3113 3112 3112 3110 3105 3103 3101 3096 3094 3096 3097 3096 3092 3089 3089 3083 3069 3061 3061 3062 3061 3060 3059 3056 3053 3052 3051 3051 3050 3048 3047 3045 3044
3199 3198 3197 3195 3193 3191 3190 3188 3187 3186 3184 3182 3180 3177 3175 3174 3174 3175 3173 3169 3166 3164 3162 3160 3157 3156 3155 3153 3152 3150 3149 3148 3146 3145 3144 3142 3141 3140 3139 3137 3135 3133 3132 3130 3128 3127 3126 3125 3123 3121 3121 3119 3117 3115 3111 3109 3108 3108 3107 3104 3101 3099 3096 3093 3093 3094 3094 3090 3086 3086 3081 3068 3059 3057 3057 3058 3057 3055 3052 3049 3048 3047 3046 3045 3044 3042 3040 3039
3197 3196 3195 3193 3191 3189 3187 3185 3184 3183 3182 3180 3177 3175 3173 3171 3172 3174 3172 3168 3164 3161 3158 3157 3156 3154 3153 3152 3151 3150 3149 3147 3146 3144 3143 3141 3140 3139 3137 3135 3134 3132 3131 3129 3127 3125 3124 3123 3121 3119 3119 3118 3116 3114 3111 3108 3106 3105 3104 3101 3098 3096 3094 3091 3090 3091 3091 3088 3083 3081 3078 3066 3057 3054 3052 3053 3053 3049 3047 3046 3044 3043 3042 3040 3039 3037 3035 3033
3196 3194 3193 3191 3189 3187 3185 3184 3182 3181 3180 3178 3175 3172 3170 3169 3169 3170 3170 3166 3161 3158 3156 3154 3154 3153 3152 3151 3151 3150 3148 3146 3145 3144 3142 3140 3138 3137 3135 3133 3132 3130 3128 3125 3124 3122 3121 3120 3119 3117 3116 3116 3115 3113 3110 3107 3105 3104 3102 3100 3097 3093 3090 3087 3087 3088 3088 3084 3078 3076 3074 3064 3055 3052 3048 3048 3050 3044 3041 3041 3039 3039 3038 3036 3034 3032 3030 3028
3194 3192 3191 3190 3187 3185 3183 3182 3180 3178 3176 3175 3172 3168 3165 3163 3161 3161 3164 3164 3160 3157 3156 3154 3152 3152 3151 3151 3150 3149 3147 3146 3144 3142 3140 3138 3136 3134 3133 3131 3129 3128 3125 3122 3120 3118 3118 3117 3115 3115 3114 3113 3112 3111 3108 3105 3103 3102 3100 3098 3095 3091 3086 3084 3084 3085 3086 3081 3072 3071 3071 3060 3053 3051 3044 3043 3045 3040 3037 3036 3034 3035 3034 3032 3030 3028 3025 3022
3191 3190 3189 3188 3186 3183 3182 3181 3179 3176 3173 3170 3169 3165 3161 3158 3155 3153 3154 3159 3159 3155 3153 3152 3151 3151 3150 3149 3149 3148 3146 3144 3143 3141 3138 3137 3134 3132 3131 3128 3126 3125 3123 3120 3117 3116 3115 3113 3112 3113 3112 3110 3109 3108 3106 3102 3100 3099 3098 3096 3091 3088 3085 3083 3082 3082 3084 3078 3067 3067 3067 3057 3051 3048 3041 3039 3039 3036 3035 3032 3029 3030 3029 3027 3026 3023 3021 3018
3189 3188 3187 3186 3184 3182 3180 3179 3177 3175 3171 3168 3166 3164 3161 3158 3156 3153 3150 3152 3155 3152 3150 3150 3150 3149 3149 3148 3147 3146 3144 3143 3141 3139 3137 3135 3133 3130 3128 3125 3122 3121 3119 3117 3114 3113 3111 3109 3109 3110 3108 3107 3106 3105 3103 3099 3096 3095 3095 3094 3088 3085 3084 3081 3080 3081 3080 3074 3064 3063 3063 3055 3050 3047 3039 3035 3034 3031 3031 3028 3025 3026 3024 3022 3021 3019 3017 3015
3187 3186 3185 3184 3182 3180 3178 3177 3175 3174 3171 3168 3165 3162 3160 3158 3155 3153 3150 3149 3150 3149 3148 3148 3148 3147 3147 3146 3145 3144 3142 3141 3139 3137 3136 3133 3131 3128 3126 3122 3119 3117 3116 3114 3112 3110 3108 3106 3107 3107 3105 3104 3102 3102 3100 3096 3093 3092 3093 3091 3086 3084 3084 3079 3077 3079 3077 3071 3062 3058 3058 3054 3049 3044 3035 3032 3031 3026 3025 3023 3020 3020 3018 3017 3017 3015 3013 3011
3184 3184 3183 3182 3180 3178 3176 3175 3173 3172 3170 3167 3165 3162 3159 3157 3154 3151 3149 3148 3147 3147 3147 3147 3146 3145 3145 3143 3142 3141 3141 3139 3137 3136 3135 3131 3128 3126 3123 3121 3117 3114 3114 3112 3110 3109 3106 3106 3106 3104 3103 3102 3099 3098 3097 3094 3090 3089 3090 3088 3084 3083 3082 3077 3075 3074 3071 3067 3060 3054 3052 3050 3048 3041 3030 3028 3028 3022 3020 3018 3015 3015 3014 3013 3012 3011 3009 3007
3182 3181 3180 3180 3179 3176 3174 3173 3171 3169 3168 3166 3164 3161 3159 3156 3153 3150 3147 3145 3145 3145 3145 3145 3144 3143 3143 3141 3139 3139 3139 3138 3136 3134 3132 3129 3126 3123 3121 3119 3115 3112 3112 3110 3108 3107 3105 3105 3105 3102 3101 3100 3098 3096 3095 3093 3089 3085 3086 3085 3082 3080 3077 3074 3072 3070 3066 3060 3056 3053 3047 3043 3045 3039 3025 3023 3023 3016 3016 3015 3012 3011 3010 3009 3007 3006 3004 3002
3179 3178 3177 3177 3176 3175 3172 3171 3169 3167 3166 3164 3162 3160 3158 3155 3152 3149 3145 3143 3143 3143 3143 3143 3142 3141 3140 3139 3137 3137 3136 3135 3134 3132 3130 3127 3125 3121 3119 3118 3115 3112 3110 3107 3105 3104 3104 3104 3103 3101 3098 3097 3095 3093 3093 3092 3087 3083 3082 3082 3080 3076 3073 3070 3069 3067 3062 3056 3051 3051 3046 3038 3039 3034 3023 3021 3018 3010 3010 3011 3009 3009 3007 3005 3002 3000 2999 2997
3176 3175 3174 3173 3173 3172 3171 3169 3167 3165 3163 3162 3160 3158 3157 3154 3152 3149 3145 3142 3141 3141 3141 3140 3139 3138 3137 3137 3136 3134 3132 3130 3129 3128 3127 3125 3122 3120 3118 3116 3114 3111 3110 3106 3101 3100 3103 3102 3100 3099 3096 3094 3092 3091 3090 3089 3086 3081 3079 3079 3077 3073 3070 3066 3065 3062 3057 3053 3046 3043 3042 3035 3031 3027 3019 3019 3015 3006 3004 3005 3005 3005 3003 3001 2998 2996 2995 2993
3174 3172 3171 3170 3169 3169 3168 3166 3164 3163 3162 3160 3158 3156 3155 3153 3151 3149 3146 3143 3139 3138 3138 3137 3137 3135 3135 3135 3135 3133 3132 3129 3125 3124 3123 3122 3120 3119 3117 3115 3112 3109 3110 3108 3099 3097 3101 3099 3097 3096 3093 3091 3090 3088 3087 3086 3083 3079 3077 3076 3072 3069 3066 3062 3061 3056 3052 3051 3040 3033 3037 3030 3021 3019 3016 3015 3012 3003 2999 3000 2999 2999 2998 2997 2995 2992 2992 2991
3171 3170 3168 3167 3166 3166 3165 3164 3162 3162 3160 3158 3156 3154 3153 3151 3149 3147 3147 3143 3138 3136 3136 3135 3134 3133 3133 3133 3134 3132 3130 3128 3125 3122 3121 3120 3118 3117 3115 3112 3110 3106 3106 3107 3099 3095 3097 3097 3095 3093 3090 3088 3087 3085 3084 3082 3079 3076 3074 3072 3069 3065 3061 3058 3056 3049 3049 3048 3033 3023 3030 3024 3013 3012 3013 3010 3007 3000 2996 2996 2995 2993 2993 2992 2991 2990 2989 2989
3167 3166 3166 3165 3164 3163 3162 3161 3160 3159 3158 3156 3154 3153 3151 3149 3147 3146 3145 3140 3136 3135 3134 3132 3131 3131 3130 3128 3128 3128 3126 3124 3123 3120 3118 3117 3116 3116 3113 3110 3107 3103 3102 3103 3099 3095 3094 3093 3092 3091 3088 3086 3084 3082 3081 3079 3076 3073 3070 3066 3062 3058 3054 3052 3048 3044 3044 3039 3024 3017 3023 3022 3009 3003 3004 3003 3001 2997 2992 2990 2990 2989 2988 2988 2987 2987 2986 2985
3164 3163 3163 3162 3161 3160 3159 3158 3157 3156 3155 3154 3152 3150 3149 3147 3146 3146 3143 3137 3134 3133 3131 3130 3129 3129 3127 3124 3122 3121 3121 3120 3119 3117 3115 3114 3113 3113 3111 3108 3105 3100 3097 3097 3096 3092 3090 3089 3089 3088 3085 3083 3080 3078 3077 3076 3072 3069 3066 3061 3055 3049 3047 3045 3040 3040 3039 3027 3016 3014 3017 3019 3005 2991 2995 2999 2997 2996 2991 2986 2985 2983 2983 2985 2985 2984 2982 2981
3161 3160 3159 3159 3158 3157 3156 3155 3154 3153 3152 3151 3149 3148 3146 3144 3143 3142 3140 3136 3134 3131 3129 3128 3127 3126 3124 3123 3121 3118 3117 3116 3115 3114 3113 3111 3110 3110 3109 3108 3105 3099 3094 3092 3091 3087 3083 3083 3084 3083 3081 3080 3077 3073 3071 3070 3068 3065 3062 3059 3053 3045 3043 3041 3036 3034 3030 3017 3013 3014 3012 3010 2998 2987 2993 2997 2995 2995 2991 2985 2983 2981 2981 2981 2980 2977 2973 2973
3157 3156 3156 3155 3154 3154 3153 3152 3151 3150 3149 3148 3146 3145 3144 3143 3140 3138 3137 3135 3133 3129 3127 3126 3124 3124 3122 3120 3119 3116 3114 3113 3112 3112 3111 3109 3108 3107 3108 3107 3105 3102 3097 3093 3090 3082 3074 3073 3076 3078 3076 3076 3074 3070 3066 3064 3064 3062 3059 3057 3052 3047 3042 3038 3032 3027 3020 3012 3012 3016 3011 3000 2992 2989 2993 2995 2992 2990 2990 2987 2983 2979 2976 2971 2968 2965 2961 2962
3153 3153 3152 3151 3150 3150 3149 3149 3148 3147 3146 3145 3143 3142 3142 3141 3137 3135 3133 3132 3130 3128 3126 3124 3122 3121 3120 3118 3117 3114 3112 3110 3109 3109 3108 3107 3105 3104 3105 3103 3102 3102 3100 3097 3092 3086 3077 3068 3069 3073 3073 3071 3070 3069 3066 3061 3060 3058 3057 3056 3051 3049 3045 3035 3029 3023 3015 3009 3010 3012 3006 2995 2988 2989 2992 2991 2987 2988 2988 2983 2975 2970 2967 2962 2960 2958 2956 2956
3149 3149 3148 3147 3147 3146 3145 3145 3144 3143 3142 3142 3140 3139 3139 3137 3134 3132 3130 3128 3127 3125 3124 3123 3120 3118 3116 3116 3115 3113 3112 3109 3106 3105 3104 3104 3103 3102 3102 3100 3100 3100 3098 3097 3093 3089 3082 3069 3066 3071 3071 3069 3066 3066 3065 3060 3057 3055 3054 3053 3049 3047 3044 3033 3026 3022 3012 3005 3006 3004 2996 2990 2987 2986 2989 2988 2984 2984 2980 2970 2965 2963 2961 2959 2956 2954 2951 2950
3145 3145 3144 3144 3143 3142 3141 3141 3140 3140 3139 3138 3137 3135 3135 3134 3132 3130 3127 3125 3124 3121 3120 3119 3118 3116 3113 3113 3112 3112 3111 3108 3105 3102 3101 3101 3101 3101 3100 3098 3097 3097 3096 3095 3092 3089 3082 3068 3063 3065 3066 3067 3065 3061 3062 3060 3056 3054 3051 3050 3046 3044 3042 3029 3017 3017 3013 3002 2998 2995 2986 2984 2986 2983 2984 2984 2977 2974 2970 2962 2961 2960 2957 2954 2951 2948 2946 2944
3141 3141 3140 3140 3139 3138 3137 3136 3136 3136 3135 3134 3133 3131 3130 3130 3129 3127 3125 3123 3121 3119 3118 3116 3114 3113 3111 3110 3109 3108 3107 3104 3102 3100 3098 3098 3098 3098 3098 3096 3095 3094 3093 3092 3089 3089 3082 3068 3062 3062 3060 3062 3062 3057 3058 3061 3059 3054 3049 3045 3039 3036 3037 3031 3016 3009 3007 2997 2990 2990 2983 2981 2983 2978 2975 2976 2971 2968 2966 2962 2960 2956 2952 2951 2947 2945 2943 2940
3137 3136 3136 3135 3135 3134 3132 3132 3132 3131 3131 3130 3129 3128 3126 3126 3125 3124 3123 3121 3119 3117 3117 3115 3113 3111 3109 3107 3105 3104 3103 3100 3099 3098 3095 3094 3095 3094 3094 3093 3092 3090 3089 3089 3086 3085 3082 3068 3059 3062 3059 3056 3057 3054 3051 3055 3058 3055 3048 3043 3039 3032 3029 3029 3022 3009 3002 2994 2985 2983 2980 2978 2979 2973 2968 2969 2968 2966 2964 2961 2959 2954 2952 2950 2945 2943 2940 2936
3133 3132 3130 3130 3130 3129 3128 3128 3127 3127 3127 3125 3125 3124 3123 3122 3121 3120 3119 3118 3116 3115 3114 3113 3112 3109 3107 3105 3103 3101 3100 3098 3095 3095 3093 3092 3092 3091 3090 3088 3088 3086 3084 3084 3082 3080 3080 3070 3057 3058 3059 3052 3050 3051 3047 3047 3050 3050 3044 3040 3039 3036 3027 3024 3022 3014 3005 2995 2983 2975 2972 2973 2975 2970 2967 2967 2965 2964 2962 2959 2956 2953 2951 2948 2944 2940 2936 2932
3128 3127 3125 3125 3125 3124 3123 3123 3122 3122 3122 3121 3121 3121 3120 3119 3118 3117 3116 3115 3113 3112 3111 3110 3109 3107 3104 3103 3101 3099 3097 3095 3093 3092 3091 3089 3088 3088 3086 3083 3083 3083 3080 3080 3079 3076 3075 3072 3058 3052 3056 3051 3045 3047 3048 3045 3045 3043 3039 3034 3031 3030 3025 3018 3016 3013 3007 2996 2985 2977 2967 2967 2973 2970 2966 2966 2965 2963 2962 2957 2952 2949 2947 2945 2942 2938 2934 2929
3123 3122 3120 3120 3120 3119 3119 3118 3117 3117 3117 3116 3117 3117 3116 3116 3114 3114 3113 3111 3110 3109 3108 3107 3106 3105 3102 3100 3099 3098 3095 3092 3091 3090 3088 3087 3087 3086 3083 3080 3078 3078 3076 3074 3075 3072 3069 3068 3059 3050 3051 3048 3041 3042 3046 3046 3045 3042 3036 3030 3027 3024 3021 3015 3009 3008 3007 2998 2989 2982 2964 2956 2968 2971 2966 2968 2966 2962 2961 2956 2949 2945 2943 2940 2938 2936 2933 2928
3118 3116 3115 3116 3115 3115 3114 3112 3111 3111 3112 3112 3112 3112 3111 3111 3111 3110 3109 3108 3107 3106 3104 3104 3102 3101 3100 3098 3097 3096 3093 3090 3088 3087 3086 3085 3085 3084 3080 3079 3076 3075 3074 3071 3071 3071 3067 3063 3058 3052 3050 3045 3038 3039 3042 3042 3043 3041 3034 3029 3026 3024 3021 3017 3007 3002 3001 2993 2986 2982 2963 2950 2962 2969 2965 2965 2965 2960 2958 2954 2947 2942 2939 2935 2931 2929 2927 2923
3112 3111 3111 3111 3110 3110 3109 3107 3106 3106 3107 3107 3107 3107 3107 3107 3106 3106 3105 3104 3104 3102 3101 3101 3099 3098 3097 3096 3094 3094 3092 3089 3086 3085 3084 3083 3083 3082 3079 3078 3075 3073 3072 3070 3067 3068 3066 3060 3054 3049 3045 3039 3033 3035 3039 3040 3039 3035 3028 3025 3023 3020 3020 3017 3009 3001 2993 2984 2980 2975 2957 2946 2958 2966 2962 2959 2958 2955 2953 2950 2945 2939 2934 2930 2925 2921 2919 2917
3106 3106 3105 3105 3105 3105 3104 3102 3101 3101 3102 3102 3102 3102 3102 3102 3102 3101 3101 3100 3100 3098 3097 3097 3096 3095 3094 3093 3092 3091 3091 3088 3084 3083 3082 3080 3080 3079 3077 3075 3073 3071 3070 3068 3066 3064 3062 3059 3053 3048 3043 3032 3024 3028 3033 3035 3036 3030 3021 3019 3017 3015 3014 3009 3004 2999 2988 2979 2979 2972 2950 2942 2953 2959 2955 2953 2951 2948 2946 2944 2940 2935 2930 2925 2919 2913 2910 2908
3101 3100 3099 3100 3100 3100 3099 3098 3098 3097 3097 3097 3097 3097 3098 3098 3098 3097 3097 3097 3096 3094 3093 3093 3092 3091 3090 3090 3089 3088 3089 3087 3083 3081 3079 3077 3076 3076 3074 3072 3070 3068 3067 3066 3064 3062 3060 3057 3053 3051 3050 3037 3025 3026 3030 3029 3029 3025 3018 3015 3013 3012 3012 3006 3000 2995 2983 2974 2976 2970 2950 2941 2950 2952 2949 2948 2945 2941 2940 2936 2932 2928 2924 2920 2915 2910 2905 2902
3096 3095 3095 3095 3096 3095 3094 3094 3094 3093 3093 3092 3092 3093 3094 3094 3094 3094 3094 3093 3092 3090 3089 3089 3089 3088 3086 3086 3085 3084 3084 3084 3082 3078 3077 3074 3071 3070 3070 3069 3068 3066 3064 3062 3060 3059 3057 3053 3050 3049 3049 3039 3027 3026 3029 3028 3022 3016 3012 3011 3010 3010 3009 3004 2997 2989 2980 2970 2967 2966 2956 2944 2945 2948 2945 2943 2941 2937 2933 2929 2925 2922 2918 2914 2911 2909 2905 2900
3090 3091 3091 3092 3092 3091 3090 3090 3090 3089 3089 3089 3088 3088 3089 3090 3090 3091 3091 3090 3088 3087 3086 3086 3086 3084 3083 3082 3082 3081 3080 3080 3078 3076 3073 3071 3068 3067 3066 3066 3066 3063 3061 3060 3057 3055 3052 3047 3044 3044 3041 3034 3026 3024 3026 3024 3017 3010 3007 3006 3006 3006 3003 2998 2990 2982 2978 2969 2959 2959 2959 2948 2942 2945 2942 2939 2938 2933 2928 2925 2921 2917 2913 2910 2907 2905 2903 2899
3085 3085 3087 3088 3088 3087 3086 3086 3087 3086 3085 3085 3085 3085 3085 3086 3087 3087 3087 3086 3085 3084 3083 3082 3082 3081 3080 3078 3077 3077 3075 3073 3072 3071 3068 3066 3063 3061 3060 3061 3061 3059 3056 3055 3053 3052 3048 3041 3038 3038 3034 3028 3024 3021 3021 3018 3012 3007 3004 3001 3000 3000 2995 2989 2982 2977 2975 2968 2956 2954 2955 2948 2942 2942 2940 2936 2933 2929 2925 2922 2919 2914 2911 2907 2903 2900 2898 2895
3079 3080 3082 3084 3083 3083 3083 3083 3083 3083 3082 3081 3081 3081 3082 3082 3083 3083 3083 3082 3082 3081 3080 3079 3078 3077 3076 3075 3073 3072 3071 3069 3067 3065 3063 3061 3059 3056 3053 3052 3053 3053 3051 3049 3048 3048 3043 3036 3034 3033 3029 3023 3018 3016 3016 3013 3007 3003 3000 2997 2995 2992 2987 2980 2974 2971 2969 2964 2957 2953 2950 2946 2943 2940 2936 2933 2929 2925 2922 2919 2915 2911 2907 2903 2900 2896 2893 2890
3074 3076 3078 3079 3079 3079 3079 3079 3079 3079 3079 3078 3078 3078 3078 3078 3078 3079 3079 3079 3078 3077 3076 3075 3074 3073 3072 3072 3070 3068 3067 3066 3063 3061 3060 3057 3055 3054 3051 3047 3046 3047 3046 3044 3042 3042 3038 3033 3031 3030 3024 3017 3013 3011 3011 3009 3004 2998 2994 2992 2989 2984 2978 2972 2968 2966 2964 2958 2953 2951 2944 2939 2939 2937 2932 2929 2925 2921 2917 2913 2909 2906 2902 2898 2895 2892 2889 2886
3070 3072 3074 3074 3074 3074 3074 3074 3075 3075 3075 3075 3075 3075 3074 3074 3074 3075 3075 3075 3074 3073 3071 3070 3070 3070 3068 3068 3067 3065 3063 3062 3060 3058 3058 3055 3052 3052 3049 3046 3044 3042 3040 3040 3038 3037 3035 3030 3027 3027 3019 3011 3009 3008 3005 3004 3001 2995 2990 2987 2983 2978 2971 2968 2967 2964 2960 2954 2948 2944 2939 2934 2932 2931 2927 2923 2920 2916 2913 2908 2903 2900 2898 2896 2892 2887 2884 2881
3066 3068 3070 3070 3069 3069 3069 3070 3071 3071 3071 3071 3072 3071 3071 3070 3071 3071 3071 3070 3070 3068 3067 3066 3066 3066 3065 3063 3062 3061 3059 3058 3056 3055 3054 3052 3049 3049 3046 3043 3043 3040 3037 3038 3035 3033 3032 3028 3025 3024 3016 3008 3008 3006 3003 3001 2994 2989 2988 2983 2977 2974 2969 2965 2963 2959 2955 2953 2945 2938 2935 2931 2929 2927 2922 2917 2914 2911 2908 2906 2900 2895 2892 2892 2888 2883 2879 2875